Regional Weather Roundup
Issued by NWS State College, PA

Home | Current Version | Previous Version | Graphics & Text | Print | Product List | Glossary On
Versions: 1 2 3 4 5 6 7 8 9 10 11 12 13 14 15 16 17 18 19 20 21 22 23 24 25 26 27 28 29 30 31 32 33 34 35 36 37 38 39 40 41 42 43 44 45 46 47 48 49 50
000
ASUS41 KCTP 021303
RWRCTP

REGIONAL WEATHER ROUNDUP
NATIONAL WEATHER SERVICE STATE COLLEGE PA
900 AM EDT MON MAY 02 2016

Note: "fair" indicates few or no clouds below 12,000 feet with no
significant weather and/or obstructions to visibility.

* = STATION THAT DOES NOT REPORT PRECIPITATION /E.G. RAIN...SNOW...ETC/
    THUNDER OR FOG.

PAZ002>004-007>009-013>016-020>023-029>032-021400-
WESTERN PENNSYLVANIA

CITY           SKY/WX    TMP DP  RH WIND       PRES   REMARKS
ERIE           CLOUDY    45  44  97 NE10      29.93R FOG
MEADVILLE        N/A    N/A N/A N/A MISG      29.91R
FRANKLIN*      CLOUDY    50  46  87 W5        29.91R
NEW CASTLE     CLOUDY    51  49  92 W5        29.92R
BEAVER COUNTY    N/A     54  54 100 SW6       29.90R FOG
BUTLER*        CLOUDY    55  54  94 SW8       29.92S
PITTSBURGH INT PTSUNNY   62  56  80 W10G18    29.90R
PITTSBURGH     MOSUNNY   62  57  83 SW12      29.90S
INDIANA*       CLOUDY    61  59  94 W14G21    29.93R
LATROBE        PTSUNNY   61  61 100 SW12      29.92R
WASHINGTON CO* CLOUDY    61  55  82 SW10      29.93R
$$

PAZ004>006-010>012-017>019-024>028-033>037-041-042-045-046-049>053-021400-
CENTRAL PENNSYLVANIA

CITY           SKY/WX    TMP DP  RH WIND       PRES   REMARKS
BRADFORD       LGT RAIN  50  48  93 N8        29.87R FOG
DUBOIS         CLOUDY    56  53  90 W16G24    29.87R
CLEARFIELD     CLOUDY    54  52  93 SW5       29.88R
JOHNSTOWN      CLOUDY    58  52  80 SW13      29.92R
ALTOONA        CLOUDY    59  55  87 S7        29.92S
STATE COLLEGE  CLOUDY    54  52  94 S6        29.89R
WILLIAMSPORT   CLOUDY    51  48  89 NE12G18   29.91F
SELINSGROVE    CLOUDY    52  49  89 CALM      29.93F
FT INDIANTOWN  CLOUDY    48  48 100 VRB3      29.95F FOG
CAPITAL CITY   CLOUDY    53  50  89 E8        29.95F FOG
HARRISBURG     FOG       53  51  93 SE7       29.95F VSB 3/4
YORK           CLOUDY    54  53  97 CALM      29.95R
$$

PAZ038>040-043-044-047-048-054-055-060>062-067>071-021400-
EASTERN PENNSYLVANIA

CITY           SKY/WX    TMP DP  RH WIND       PRES   REMARKS
SCRANTON       LGT RAIN  48  46  93 VRB5      29.95S FOG
MOUNT POCONO   FOG       43  42  97 S5        29.97R VSB<1/4
ALLENTOWN      CLOUDY    48  45  87 S5        30.00R FOG
QUAKERTOWN*    CLOUDY    46  46 100 S3        30.01S VSB 3/4
READING        CLOUDY    49  46  90 SE6       29.97F FOG
LANCASTER      LGT RAIN  50  50 100 SE10      29.94F FOG
COATESVILLE    DRZL/FOG  48  48 100 SE6       29.99F VSB 1/4
POTTSTOWN      LGT RAIN  47  47 100 CALM      30.02S VSB 3/4
BLUE BELL      CLOUDY    45  45 100 CALM      30.01R VSB 1
DOYLESTOWN     FOG       45  45 100 CALM      30.01R VSB 3/4
WILLOW GROVE   NOT AVBL
NORTH PHILA    CLOUDY    50  46  86 N5        30.03R
PHILADELPHIA   CLOUDY    50  46  86 VRB3      30.02R
$$




USA.gov is the U.S. government's official web portal to all federal, state and local government web resources and services.